Find KUIPER-00434

NORAD ID: 68938 Int'l Des: 2026-098V Owner: KUIP Country: US Constellation: amazon-leo operational
LEOCIRCULAR

現在のビュー

3D地球を読み込み中...

About KUIPER-00434

KUIPER-00434 (NORAD 68938) is a amazon-leo constellation satellite launched Apr 30, 2026 by KUIP of US. It operates in LEO, CIRCULAR orbit with a mass of 490.00 kg.

KUIPER-00434について

説明を読み込み中...

次回通過

Passes for default location (London). Set your location on the main map for personalized predictions.

高度履歴

Loading altitude history...

軌道要素

1 68938U 26098V 26170.40031610 -.00028514 00000-0 -88824-3 0 9995
2 68938 51.8748 57.3190 0006736 137.5003 222.6504 15.32430087 7680
Epoch: Jun 19, 2026 • Age: 25 hours

現在のステータス

高度 473.8 km
速度 7.63 km/s
衛星直下点 -3.49°S, 18.54°W
打ち上げ日 Apr 30, 2026
運用期間 0.1 years
タイプ internet

技術仕様

分類 Payload
質量 490.00 kg
乾燥質量 490.00 kg
総質量 490.00 kg
長さ 1.80 m
直径 0.70 m
スパン 5.00 m
形状 Box + 2 pan
製造者 KUIP
バスタイプ Kuiper
フェーズステータス In Orbit
所有者/国 KUIP/US

Most Searched